Regional Weather Roundup
Issued by NWS

Home | Current Version | Previous Version | Graphics & Text | Print | Product List | Glossary Off
Versions: 1 2 3 4 5 6 7 8 9 10 11 12 13 14 15 16 17 18 19 20 21 22 23 24 25 26 27 28 29 30 31 32 33 34 35 36 37 38 39 40 41 42 43 44 45 46 47 48 49 50

000
ASUS43 KMPX 310101
RWRMN
WEATHER ROUNDUP FOR MINNESOTA
NATIONAL WEATHER SERVICE TWIN CITIES/CHANHASSEN MN
800 PM CDT SAT AUG 30 2014


NOTE: "FAIR" INDICATES FEW OR NO CLOUDS BELOW 12,000 FEET WITH NO
SIGNIFICANT WEATHER AND/OR OBSTRUCTIONS TO VISIBILITY. N/A MEANS
CURRENT SKY AND/OR WEATHER CONDITIONS ARE NOT AVAILABLE.

MNZ060>063-068>070-310200-
   Twin Cities Metro

CITY           SKY/WX    TMP DP  RH WIND       PRES   REMARKS
TWIN CITIES    MOCLDY    71  61  70 E7        29.86R
ST PAUL        CLOUDY    69  61  75 E3        29.86R
CRYSTAL        CLOUDY    72  60  66 SE5       29.85R
LAKEVILLE      CLOUDY    66  63  88 E3        29.87R
EDEN PRAIRIE   LGT RAIN  68  66  93 CALM      29.86R
SOUTH ST PAUL  MOCLDY    70  61  73 E3        29.87R
LAKE ELMO      FAIR      64  61  88 E3        29.88R
$$
MNZ001>005-007-008-013>017-022>024-027-028-310200-
   Northwest Minnesota

CITY           SKY/WX    TMP DP  RH WIND       PRES   REMARKS
BEMIDJI        CLOUDY    63  58  84 SE7       29.86F
HALLOCK        CLEAR     64  50  59 SE7       29.80S
ROSEAU         CLEAR     61  54  77 E5        29.84F
WARROAD        CLEAR     64  55  72 E9        29.85S
THIEF RVR FALL CLEAR     64  52  63 E7        29.83F
CROOKSTON      MOCLDY    66  59  77 S10       29.82R
FOSSTON        CLOUDY    63  57  82 SE8       29.85F
DETROIT LAKES  CLOUDY    64  59  82 E7        29.86S
MOORHEAD       CLOUDY    68  64  88 CALM      29.83S
PARK RAPIDS    CLOUDY    61  61 100 CALM      29.87S FOG
MAHNOMEN       CLOUDY    63  59  87 SE6       29.84F
$$
MNZ006-009>011-018-025>026-310200-
   North Central Minnesota

CITY           SKY/WX    TMP DP  RH WIND       PRES   REMARKS
BAUDETTE       CLEAR     62  54  74 NE3       29.85S
FLAG ISLAND    CLEAR     64  52  63 CALM      29.84S
INTL FALLS     CLEAR     60  52  74 SE6       29.87R
WASKISH        CLEAR     64  57  77 CALM      29.86S
BIG FORK       MOCLDY    63  57  82 SE6       29.89S
LONGVILLE      MOCLDY    63  61  94 CALM      29.87S
GRAND RAPIDS   CLOUDY    63  57  82 CALM      29.88S
CRANE LAKE     CLEAR     54  54 100 CALM      29.91R
ORR            CLEAR     57  54  88 CALM      29.87S
COOK           CLOUDY    61  57  88 CALM      29.90S
WALKER         CLOUDY    63  59  88 CALM      29.87S
$$
MNZ012-019>021-037-310200-
   Northeast Minnesota

CITY           SKY/WX    TMP DP  RH WIND       PRES   REMARKS
DULUTH         CLOUDY    61  58  90 E8        29.90R
ELY            MOCLDY    59  57  94 CALM      29.91R
HIBBING        CLOUDY    64  58  80 E5        29.90R
EVELETH        CLOUDY    63  59  88 CALM      29.91S
DULUTH HARBOR  CLOUDY    63  61  94 NE12      29.90R
TWO HARBORS    CLOUDY    57  54  88 E6        29.90R HAZE
SILVER BAY     PTCLDY    57  57 100 CALM      29.91R
GRAND MARAIS     N/A     62  59  90 CALM      29.90R
G MARAIS ARPRT CLOUDY    57  54  88 CALM      29.94R
$$
MNZ029>031-032-039>041-046>048-054>057-064-310200-
   West Central Minnesota

CITY           SKY/WX    TMP DP  RH WIND       PRES   REMARKS
FERGUS FALLS   CLEAR     63  61  94 S3        29.83F
WHEATON        CLEAR     61  57  88 E5        29.85S
MORRIS         CLEAR     64  61  88 SE3       29.84F
ALEXANDRIA     MOCLDY    67  62  84 W3        29.87S
ELBOW LAKE     MOCLDY    62  59  91 S7        29.84F
WADENA         MOCLDY    63  61  94 E5        29.85F
GLENWOOD       CLEAR     64  63  94 CALM      29.87S
APPLETON       CLEAR     66  61  82 SE5       29.85R
BENSON         PTCLDY    64  61  88 CALM      29.85F
ORTONVILLE     CLEAR     64  59  82 SE6       29.84S
MADISON        PTCLDY    66  64  94 E5        29.85S
WILLMAR        CLOUDY    66  63  88 CALM      29.88R
$$
MNZ033>034-036-042>043-049>051-058-059-310200-
   Central Minnesota

CITY           SKY/WX    TMP DP  RH WIND       PRES   REMARKS
ST CLOUD       CLOUDY    71  65  81 E3        29.85S
SAUK CENTRE    MOCLDY    68  64  88 CALM      29.86R
PAYNESVILLE    RAIN      67  64  91 S3        29.86R
AITKIN         MOCLDY    70  63  78 CALM      29.86S
PINE RIVER     CLOUDY    64  61  88 CALM      29.91R
BRAINERD       CLOUDY    65  62  90 N5        29.87S
STAPLES        PTCLDY    63  61  94 CALM      29.86S
LONG PRAIRIE   FAIR      64  61  88 CALM      29.86S
LITTLE FALLS   MOCLDY    64  63  94 CALM      29.86S
LITCHFIELD     MOCLDY    70  66  88 CALM      29.87R
BUFFALO        CLOUDY    69  64  84 SE3       29.87R
MAPLE LAKE     MOCLDY    68  66  94 CALM      29.87R
$$
MNZ037-044-045-052-053-310200-
   East Central Minnesota

CITY           SKY/WX    TMP DP  RH WIND       PRES   REMARKS
PRINCETON      CLOUDY    72  63  73 CALM      29.86R
MORA           MOCLDY    64  61  88 CALM      29.88R
CAMBRIDGE      PTCLDY    70  59  68 CALM      29.85R
RUSH CITY      CLEAR     66  60  81 CALM      29.88R
MOOSE LAKE     CLOUDY    64  61  88 NE3       29.87R
HINCKLEY       CLOUDY    68  63  83 CALM      29.88R
CLOQUET        MOCLDY    61  57  88 E6        29.90R
MCGREGOR       CLOUDY    66  61  82 CALM      29.88R
$$
MNZ071>073-080-081-089-090-097-098-310200-
   Southwest Minnesota

CITY           SKY/WX    TMP DP  RH WIND       PRES   REMARKS
MONTEVIDEO     CLEAR     64  61  88 CALM      29.87R
GRANITE FALLS  CLEAR     66  63  87 CALM      29.88R
CANBY          PTCLDY    66  62  86 CALM      29.86S
MARSHALL       MOCLDY    66  61  82 E6        29.85R
REDWOOD FALLS  CLEAR     67  62  84 CALM      29.86R
OLIVIA         CLEAR     68  63  83 CALM      29.86R
PIPESTONE      CLEAR     66  61  82 S3        29.87R
WINDOM         PTCLDY    66  64  94 CALM      29.87S
WORTHINGTON    CLEAR     70  61  73 S3        29.89R
JACKSON        CLEAR     68  63  83 CALM      29.88R
TRACY          PTCLDY    68  65  88 CALM      29.87R
SLAYTON        CLEAR     67  62  85 CALM      29.88S
$$
MNZ065>067-074>077-082>085-091>093-310200-
   South Central Minnesota

CITY           SKY/WX    TMP DP  RH WIND       PRES   REMARKS
MANKATO        CLEAR     70  61  73 W3        29.86R
NEW ULM        CLEAR     68  66  94 CALM      29.86S
ST JAMES       CLEAR     68  64  88 CALM      29.87S FOG
FAIRMONT       CLEAR     66  63  88 E3        29.87R
GLENCOE        PTCLDY    72  64  76 CALM      29.85S
FARIBAULT      MOCLDY    73  64  73 CALM      29.88R
OWATONNA       PTCLDY    72  64  78 W3        29.87R
WASECA         CLEAR     66  61  82 NW5       29.89R
ALBERT LEA     CLEAR     70  66  88 CALM      29.87R
$$
MNZ078>079-086>088-094>096-310200-
   Southeast Minnesota

CITY           SKY/WX    TMP DP  RH WIND       PRES   REMARKS
ROCHESTER      PTCLDY    68  63  84 E6        29.88R
RED WING       CLEAR     68  63  83 NE5       29.86R
STANTON        CLOUDY    69  63  80 NE5       29.86R
DODGE CENTER   CLOUDY    70  66  88 CALM      29.88R
WINONA         CLEAR     70  63  78 CALM      29.87R
AUSTIN         PTCLDY    72  64  78 CALM      29.87R
PRESTON        CLEAR     69  67  95 CALM      29.88R
$$
ABBREVIATIONS USED IN REMARKS
   TC - TEMPERATURES IN CELSIUS
  WCI - WIND CHILL INDEX
   HX - HEAT INDEX
  VSB - VISIBILITY
$$


USA.gov is the U.S. government's official web portal to all federal, state and local government web resources and services.